sat.trackr.live / text

‹ back to catalog

ONEWEB-0364

NORAD 49290 · 2021-090M

PAYLOAD ACTIVE UNKNOWN

§ Identity

Operator
Country
UK
Launch date
2021-10-14
Launch site
VOSTO
Launch vehicle
Mass (kg)
RCS (m²)

Purposes: comms

External: N2YO · Heavens-Above · Gunter

§ Orbital elements

Epoch: 2026-05-25T02:19:31.106784Z

Period
109.03 min
Inclination
87.9172°
Eccentricity
0.0001899
Mean motion
13.20770032 rev/d
Perigee alt
1,180.3 km
Apogee alt
1,183.2 km
Semi-major
7,559.9 km
B*
-6.9983e-5
RAAN
279.0515°
Arg perigee
100.0900°
Mean anomaly
260.0448°
Rev number
22,839

§ Raw data

ONEWEB-03641 49290U 21090M   26145.09688781 -.00000015  00000+0 -69983-4 0  99972 49290  87.9172 279.0515 0001899 100.0900 260.0448 13.20770032228399

JSON: /api/v1/satellites/49290 · /tle

For live sub-satellite position, see the globe view (requires WebGL).

§ Visibility from observer

Set your observer location to see the next 7 days of passes ≥ 10°. The values pass through the URL so the page stays shareable.

No JS? Fill the form by hand. The geolocation button needs JavaScript.